Weather History for Bradshaw AFB, HI

Change the Weather History Date:

Wednesday, January 1, 2014

  Actual Average Record
Temperature  
Mean Temperature 53 °F -  
Max Temperature 62 °F 63 °F 62 °F (2014)
Min Temperature 44 °F 42 °F 44 °F (2014)
Degree Days  
Heating Degree Days 12    
Growing Degree Days 3 (Base 50)    
Moisture  
Dew Point 48 °F    
Average Humidity 89    
Maximum Humidity 100    
Minimum Humidity 58    
Precipitation  
Precipitation 0.06 in - - ()
Sea Level Pressure  
Sea Level Pressure 30.25 in    
Wind  
Wind Speed 4 mph (SE)    
Max Wind Speed 10 mph    
Max Gust Speed 15 mph    
Visibility 4 miles    
Events Fog    
Averages and records for this station are not official NWS values.
T = Trace of Precipitation, MM = Missing Value Source: NWS Daily Summary

Daily Weather History Graph

Daily Weather History Graph

Search for Another Location

Airport:

Trip Planner

Search our weather history database for the weather conditions in past years. The results will help you decide how hot, cold, wet, or windy it might be!

Date:

Astronomy

Jan. 01, 2014 Rise Set
Actual Time 6:56 AM HST 5:55 PM HST
Civil Twilight 6:33 AM HST 6:18 PM HST
Nautical Twilight 6:05 AM HST 6:46 PM HST
Astronomical Twilight 5:38 AM HST 7:13 PM HST
Moon 7:06 AM HST (1/1) 6:41 PM HST (1/1)
Length of Visible Light 11h 45m
Length of Day
10h 58m
New Moon, 0% of the Moon is Illuminated
Jan 1
New Moon
Jan 7
First Quarter
Jan 15
Full
Jan 23
Last Quarter
Jan 30
New

Hourly Weather History & Observations

Time (HST) Temp. Windchill Dew Point Humidity Pressure Visibility Wind Dir Wind Speed Gust Speed Precip Events Conditions
12:56 AM 46.4 °F 45.2 °F 43.7 °F 90% 30.28 in 7.0 mi East 3.5 mph - N/A   Clear
1:56 AM 45.9 °F 43.6 °F 43.9 °F 93% 30.26 in 5.0 mi ESE 4.6 mph - N/A   Clear
2:56 AM 44.8 °F - 43.3 °F 95% 30.25 in 4.0 mi ESE 2.3 mph - N/A   Clear
3:36 AM 46.4 °F 44.3 °F 44.6 °F 93% 30.25 in 4.0 mi ESE 4.6 mph - N/A   Mostly Cloudy
3:51 AM 46.4 °F 44.3 °F 44.6 °F 93% 30.25 in 4.0 mi ESE 4.6 mph - N/A   Scattered Clouds
3:56 AM 46.2 °F 43.3 °F 43.5 °F 90% 30.25 in 5.0 mi ESE 5.8 mph - N/A   Scattered Clouds
4:56 AM 45.0 °F 41.8 °F 41.5 °F 88% 30.24 in 7.0 mi ESE 5.8 mph - N/A   Clear
5:56 AM 45.5 °F 44.2 °F 39.7 °F 80% 30.25 in 11.0 mi East 3.5 mph - N/A   Clear
6:56 AM 45.7 °F 44.4 °F 39.7 °F 80% 30.26 in 10.0 mi ESE 3.5 mph - N/A   Clear
7:56 AM 50.4 °F - 44.8 °F 81% 30.27 in 10.0 mi ESE 1.2 mph - N/A   Clear
8:56 AM 56.8 °F - 46.0 °F 67% 30.29 in 11.0 mi Calm Calm - N/A   Clear
9:56 AM 59.5 °F - 46.6 °F 62% 30.30 in 9.0 mi SSW 2.3 mph - N/A   Clear
10:56 AM 61.9 °F - 46.9 °F 58% 30.29 in 10.0 mi WSW 4.6 mph - N/A   Clear
11:56 AM 61.9 °F - 52.9 °F 72% 30.26 in 8.0 mi WSW 9.2 mph 13.8 mph N/A   Clear
12:56 PM 62.2 °F - 51.4 °F 68% 30.23 in 7.0 mi WSW 8.1 mph - N/A   Clear
1:56 PM 61.9 °F - 51.6 °F 69% 30.21 in 7.0 mi West 10.4 mph - N/A   Partly Cloudy
2:56 PM 62.6 °F - 51.8 °F 68% 30.19 in 7.0 mi WSW 8.1 mph 15.0 mph N/A   Scattered Clouds
3:56 PM 58.8 °F - 52.3 °F 79% 30.20 in 5.0 mi West 8.1 mph - N/A   Partly Cloudy
4:56 PM 55.9 °F - 52.7 °F 89% 30.21 in 4.0 mi West 9.2 mph - N/A   Partly Cloudy
5:56 PM 54.3 °F - 52.5 °F 94% 30.23 in 3.0 mi WSW 2.3 mph - N/A   Partly Cloudy
6:01 PM 53.6 °F - 51.8 °F 94% 30.23 in 1.2 mi WSW 4.6 mph - N/A   Scattered Clouds
6:06 PM 53.6 °F - 51.8 °F 94% 30.23 in 1.0 mi WSW 3.5 mph - N/A   Scattered Clouds
6:11 PM 53.6 °F - 51.8 °F 94% 30.23 in 0.2 mi Calm Calm - N/A Fog Fog
6:16 PM 53.6 °F - 51.8 °F 94% 30.23 in 0.1 mi NNE 2.3 mph - N/A Fog Patches of Fog
6:26 PM 53.6 °F - 51.8 °F 94% 30.23 in 2.0 mi ESE 4.6 mph - N/A Fog Patches of Fog
6:31 PM 53.6 °F - 51.8 °F 94% 30.23 in 3.0 mi ESE 3.5 mph - N/A Fog Patches of Fog
6:41 PM 53.6 °F - 51.8 °F 94% 30.24 in 4.0 mi SW 3.5 mph - N/A   Scattered Clouds
6:56 PM 53.1 °F - 51.4 °F 94% 30.24 in 3.0 mi West 3.5 mph - N/A   Partly Cloudy
7:56 PM 51.6 °F - 49.6 °F 93% 30.26 in 4.0 mi NNE 1.2 mph - N/A   Clear
8:46 PM 50.0 °F - 50.0 °F 100% 30.27 in 0.9 mi West 2.3 mph - N/A   Clear
8:56 PM 50.2 °F - 49.3 °F 97% 30.27 in 0.1 mi West 2.3 mph - N/A Fog Fog
9:16 PM 50.0 °F - 50.0 °F 100% 30.27 in 0.2 mi North 1.2 mph - N/A Fog Patches of Fog
9:21 PM 50.0 °F - 50.0 °F 100% 30.27 in 2.2 mi Calm Calm - N/A Fog Patches of Fog
9:26 PM 50.0 °F - 50.0 °F 100% 30.27 in 2.8 mi NNE 1.2 mph - N/A Fog Patches of Fog
9:31 PM 50.0 °F - 50.0 °F 100% 30.27 in 1.8 mi NNE 1.2 mph - N/A Fog Patches of Fog
9:36 PM 50.0 °F - 50.0 °F 100% 30.27 in 0.4 mi Calm Calm - N/A Fog Patches of Fog
9:41 PM 50.0 °F - 50.0 °F 100% 30.27 in 0.4 mi NNE 2.3 mph - N/A Fog Fog
9:46 PM 50.0 °F - 50.0 °F 100% 30.27 in 1.8 mi NNE 2.3 mph - N/A   Mostly Cloudy
9:51 PM 50.0 °F - 48.2 °F 94% 30.27 in 2.2 mi East 2.3 mph - N/A   Mostly Cloudy
9:56 PM 49.5 °F - 48.7 °F 97% 30.27 in 0.5 mi ESE 2.3 mph - N/A Fog Fog
10:01 PM 50.0 °F - 48.2 °F 94% 30.27 in 0.4 mi ESE 2.3 mph - N/A Fog Fog
10:06 PM 48.2 °F - 48.2 °F 100% 30.27 in 1.0 mi ESE 2.3 mph - N/A Fog Fog
10:11 PM 48.2 °F - 46.4 °F 93% 30.27 in 3.0 mi ESE 3.5 mph - N/A   Scattered Clouds
10:56 PM 47.5 °F - 44.4 °F 89% 30.26 in 5.0 mi ESE 3.5 mph - N/A   Clear
11:56 PM 46.2 °F 44.1 °F 42.3 °F 86% 30.24 in 7.0 mi ESE 4.6 mph - N/A   Clear